Showing default

EYESAT A, 22825

Orbit data source: Space-Track

EYESAT A, 22825 is a payload satellite owned by Interfer (US) in SSO that was launched on Sun, 26 Sep 1993 UTC via an ARIANE 40 launch vehicle from the French Guiana (FRGUI). Payload-class satellites include a variety of spacecraft equipped with specific instruments for various scientific and technological missions. These include communications satellites like Starlink; space stations such as the ISS; scientific satellites like the Hubble; Earth observation satellites from companies like Planet Labs, Umbra, and HawkEye 360; GPS; miniature CubeSats for education and research; and military/defense satellites.

Loading next visibility...
Identifier
22825, 1993-061C
Orbit
SSO
Country
Flag of USUS
Related business
Manufacturer
Interfer
Mission
Partially operational Commercial Communications
Bus & Motor
MICROSAT, Unknown motor
Mass
12 kg wet, 12 kg dry
Launch date (UTC)
1993-09-26 (33 years ago)
Launch vehicle
ARIANE 40
Launch site
French Guiana (FRGUI)
Object type
Payload
Rocket body
Debris
Shape & HBR
Box, 0.3 m
Radar Cross Section
0.135 m², Medium (>0.1 m² and < 1m²)

Expand to show TLE details & history
Last TLE update: 11 hours ago

TLE from 11 hours ago
0 EYESAT A
1 22825U 93061C   26255.68376101  .00000057  00000-0  38805-4 0  9990
2 22825  98.6801 323.0302 0008046 196.2222 163.8704 14.30960766719512
Epoch: 2026-09-12T16:24Z
TLE epoch observation values (Epoch: 2026-09-12T16:24:36.951Z)
Latitude
-0.00003°
Longitude
85.187°
Altitude
796.992 km
Speed
7.452 km/s
True Right ascension
21h 32m 07s
True Declination
0° 00' 00"
Sunlit
Object was in full shadow at epoch
Visualization orbit readout
Latitude
Unknown
Longitude
Unknown
Altitude
Unknown
Speed
Unknown
Apparent Right ascension
Unknown
Apparent Declination
Unknown
Sunlit
N/A
Visualization observer readout
Local Sidereal Time
19:49:30
Azimuth
Unknown
Elevation
Unknown
Doppler factor
Unknown
Orbital elements
Apogee altitude
791.428 km
Perigee altitude
779.9 km
Semi-major axis
7,163.801 km
Eccentricity
0.0008
Inclination
98.6801°
RAAN
323.0302°
Arg. of periapsis
196.2222°
True anomaly
163.89599°
Mean anomaly
163.8704°
Eccentric anomaly
163.8832°
Mean motion
3.57955 °/min
Orbital period
100.57 mins
BSTAR
0.000038805
Loading maneuver chart data...
Computing Atmospheric mass density...
Loading historical data...
Loading historical data...
Loading historical data...
Loading historical data...
Loading historical data...
Loading historical data...
Loading historical data...

Documentation

Showing up to 5 results
|